Hourly Data Report for October 01, 2017

All times are specified in Local Standard Time (LST). Add 1 hour to adjust for Daylight Saving Time where and when it is observed.

SIOUX LOOKOUT A
ONTARIO

50°06'51.000" N
91°54'29.000" W
383.10 m
6037776
71842
YXL

Download Data

Hourly Data (October 2017)
Hourly Data Report for October 1, 2017
Temp Definition
°C
Dew Point Temp Definition
°C
Rel Hum Definition
%
Wind Dir Definition
10's deg

Wind Spd Definition
km/h
Visibility Definition
km
Stn Press Definition
kPa
Hmdx Definition


Wind Chill Definition


Weather Definition


TIME
00:00 Legend Double Dagger 13.2 8.5 73 18 14 24.1 97.26     Cloudy
01:00 Legend Double Dagger 13.3 8.5 73 19 11 24.1 97.22     LegendNANA
02:00 Legend Double Dagger 12.9 8.7 75 17 11 24.1 97.18     LegendNANA
03:00 Legend Double Dagger 12.8 8.4 75 17 12 24.1 97.11     Mostly Cloudy
04:00 Legend Double Dagger 12.8 8.6 75 17 10 24.1 97.07     LegendNANA
05:00 Legend Double Dagger 12.5 9.0 79 15 11 24.1 97.01     LegendNANA
06:00 Legend Double Dagger 12.4 9.2 81 16 13 24.1 96.96     Cloudy
07:00 Legend Double Dagger 12.4 9.5 83 15 14 24.1 96.91     Rain Showers
08:00 Legend Double Dagger 13.1 9.7 80 16 12 24.1 96.92     LegendNANA
09:00 Legend Double Dagger 13.5 10.4 82 17 10 24.1 96.88     Cloudy
10:00 Legend Double Dagger 14.3 10.5 78 18 12 24.1 96.91     LegendNANA
11:00 Legend Double Dagger 15.9 10.9 72 19 16 24.1 96.89     LegendNANA
12:00 Legend Double Dagger 15.8 10.8 72 18 24 24.1 96.85     Cloudy
13:00 Legend Double Dagger 13.2 12.2 94 15 10 8.1 96.83     Rain Showers,Fog
14:00 Legend Double Dagger 13.0 12.1 94 13 10 24.1 96.73     Rain Showers
15:00 Legend Double Dagger 12.8 11.9 94 15 14 19.3 96.75     Rain Showers
16:00 Legend Double Dagger 12.5 11.6 94 14 12 16.1 96.71     Rain Showers
17:00 Legend Double Dagger 12.4 11.2 92 14 12 24.1 96.67     Rain Showers
18:00 Legend Double Dagger 12.7 10.7 88 14 18 24.1 96.58     Rain Showers
19:00 Legend Double Dagger 12.5 10.2 86 15 14 24.1 96.57     Rain Showers
20:00 Legend Double Dagger 12.1 9.9 86 17 17 24.1 96.61     Rain Showers
21:00 Legend Double Dagger 12.0 9.8 87 15 14 24.1 96.59     Cloudy
22:00 Legend Double Dagger 12.7 9.5 81 15 17 24.1 96.54     LegendNANA
23:00 Legend Double Dagger 13.4 9.3 76 16 13 24.1 96.59     LegendNANA

Notes on Data Quality.

Legend

  • E = Estimated
  • M = Missing
  • NA = Not Available
  • ‡ = Partner data that is not subject to review by the National Climate Archives
Date modified: